FLOCK 1E-2

Last updated on Sat Mar 05 2016 16:27:26 GMT+0000 (Greenwich Mean Time)

1 40722U 98067GE 16065.55779821 .47056096 12829-4 35318-3 0 9993 2 40722 51.6158 187.3602 0006346 336.4790 29.3138 16.52362311 37030

Satellite not in orbit